Weather in San Vito Lo Capo

Italy     38°10′14″N   12°44′04″E
temp.,
°C
wind,
m/s
gust,
m/s
humid.,
%
clouds,
%
prec.,
mm/h
press.,
hPa
HPBL,
m
23 april, fri
fri2323:00+16ene3380100 0.1 101653
02:00+15ese4488100 1.3 1015240
05:00+15ene3288100 0.1 1015129
08:00+15ene7789100 0.1 1015383
11:00+15ene8989100 0.0 1016578
14:00+15ene8988100 0.0 1016571
17:00+15ne7888100 0.0 1015521
20:00+15ne678756 0.0 1016494
24 april, sat
sat2423:00+15ne56867 0.0 1017511
02:00+15ne688542 0.5 1017687
05:00+15ne798258 0.4 1016896
08:00+15ne81081100 0.7 1017788
11:00+15nne798087 0.2 1018859
14:00+15nne68805 0.4 1019757
17:00+15ne78790 0.0 1018724
20:00+15nne46785 0.0 1019417
25 april, sun
sun2523:00+15ene477929 0.0 1020418
02:00+15ene23740 0.0 1020247
05:00+15e3473100 0.0 1019317
08:00+15e4570100 0.0 1019282
11:00+15e33665 0.0 1020197
14:00+16ene55670 0.0 1019232
17:00+16ene336686 0.0 1018207
20:00+16ene33700 0.0 101969
26 april, mon
mon2623:00+16ese23725 0.0 101948
02:00+15ese447757 0.0 1017135
05:00+15sse2274100 0.0 101699
08:00+16ssw1173100 0.0 101625
11:00+16ne11675 0.0 101663
14:00+17e777299 0.0 1013148
17:00+17ene6778100 0.0 1010101
20:00+17e5678100 0.0 101080
27 april, tue
tue2723:00+17se5668100 0.0 100879
02:00+17e2363100 0.0 100836
05:00+17ese3366100 0.0 100629
08:00+17sw4569100 0.0 100784
11:00+17ese2377100 0.0 100743
14:00+17w7985100 0.0 1007179
17:00+17wsw678615 0.0 1007115
20:00+17sw448688 0.0 100873